When you browse on this site, cookies collect data to enhance your experience and personalize the content and advertising you see.
Visit our Privacy Policy to learn more. By continuing to use the site, you agree to this use of cookies and data.
  • In Deutschland
  • Länderverzeichnis
  • Für 7 Tage
  • Wassertemperatur
  • Wetterkarte
  • Widgets
  • user-avatar
    Anmelden

    Stündliche Wetter Parakou

    Heute, 22 November, Freitag

    Zeit Temperatur Niederschläge Wind Luftdruck Luftfeuchtigkeit
    00:00 +27°C° 0 mm 2 m/S 727 mmHg 73%
    01:00 +27°C° 0.1 mm 2 m/S 727 mmHg 80%
    02:00 +26°C° 0.1 mm 2 m/S 726 mmHg 86%
    03:00 +26°C° 0.1 mm 2 m/S 726 mmHg 93%
    04:00 +25°C° 0 mm 2 m/S 726 mmHg 94%
    05:00 +25°C° 0 mm 1 m/S 726 mmHg 94%
    06:00 +25°C° 0 mm 1 m/S 727 mmHg 92%
    07:00 +27°C° 0 mm 1 m/S 727 mmHg 81%
    08:00 +28°C° 0 mm 1 m/S 727 mmHg 70%
    09:00 +30°C° 0 mm 2 m/S 728 mmHg 59%
    10:00 +33°C° 0 mm 1 m/S 727 mmHg 51%
    11:00 +35°C° 0 mm 1 m/S 727 mmHg 42%
    12:00 +37°C° 0 mm 1 m/S 727 mmHg 37%
    13:00 +37°C° 0 mm 1 m/S 726 mmHg 34%
    14:00 +37°C° 0 mm 1 m/S 726 mmHg 31%
    15:00 +37°C° 0 mm 1 m/S 725 mmHg 28%
    16:00 +35°C° 0 mm 1 m/S 725 mmHg 31%
    17:00 +33°C° 0 mm 1 m/S 726 mmHg 34%
    18:00 +32°C° 0 mm 1 m/S 726 mmHg 37%
    19:00 +31°C° 0 mm 1 m/S 726 mmHg 40%
    20:00 +30°C° 0 mm 1 m/S 727 mmHg 43%
    21:00 +30°C° 0 mm 1 m/S 727 mmHg 46%
    22:00 +29°C° 0 mm 1 m/S 727 mmHg 49%
    23:00 +28°C° 0 mm 1 m/S 727 mmHg 51%

    Morgen, 23 November, Samstag

    Zeit Temperatur Niederschläge Wind Luftdruck Luftfeuchtigkeit
    00:00 +28°C° 0 mm 1 m/S 727 mmHg 54%
    01:00 +27°C° 0 mm 1 m/S 727 mmHg 56%
    02:00 +27°C° 0 mm 1 m/S 727 mmHg 58%
    03:00 +26°C° 0 mm 1 m/S 726 mmHg 61%
    04:00 +26°C° 0 mm 2 m/S 727 mmHg 68%
    05:00 +25°C° 0 mm 2 m/S 727 mmHg 76%
    06:00 +25°C° 0 mm 2 m/S 727 mmHg 84%
    07:00 +27°C° 0 mm 2 m/S 727 mmHg 78%
    08:00 +28°C° 0 mm 2 m/S 728 mmHg 73%
    09:00 +30°C° 0 mm 2 m/S 728 mmHg 67%
    10:00 +34°C° 0 mm 2 m/S 728 mmHg 55%
    11:00 +36°C° 0 mm 1 m/S 727 mmHg 44%
    12:00 +37°C° 0 mm 0 m/S 727 mmHg 32%
    13:00 +39°C° 0 mm 1 m/S 726 mmHg 30%
    14:00 +39°C° 0 mm 1 m/S 725 mmHg 28%
    15:00 +39°C° 0 mm 2 m/S 725 mmHg 26%
    16:00 +36°C° 0 mm 1 m/S 725 mmHg 29%
    17:00 +34°C° 0 mm 1 m/S 725 mmHg 33%
    18:00 +32°C° 0 mm 1 m/S 725 mmHg 36%
    19:00 +32°C° 0 mm 1 m/S 726 mmHg 38%
    20:00 +31°C° 0 mm 1 m/S 726 mmHg 40%
    21:00 +30°C° 0 mm 1 m/S 727 mmHg 42%
    22:00 +29°C° 0 mm 1 m/S 726 mmHg 47%
    23:00 +29°C° 0 mm 1 m/S 726 mmHg 51%

    übermorgen, 24 November, Sonntag

    Zeit Temperatur Niederschläge Wind Luftdruck Luftfeuchtigkeit
    00:00 +28°C° 0 mm 2 m/S 726 mmHg 55%
    01:00 +27°C° 0 mm 2 m/S 726 mmHg 63%
    02:00 +27°C° 0 mm 2 m/S 726 mmHg 71%
    03:00 +26°C° 0 mm 2 m/S 726 mmHg 79%
    04:00 +26°C° 0 mm 2 m/S 726 mmHg 83%
    05:00 +25°C° 0 mm 2 m/S 726 mmHg 88%
    06:00 +25°C° 0 mm 2 m/S 726 mmHg 92%
    07:00 +27°C° 0 mm 2 m/S 727 mmHg 84%
    08:00 +28°C° 0 mm 2 m/S 727 mmHg 75%
    09:00 +30°C° 0 mm 2 m/S 728 mmHg 67%
    10:00 +33°C° 0 mm 1 m/S 728 mmHg 56%
    11:00 +36°C° 0 mm 1 m/S 727 mmHg 45%
    12:00 +37°C° 0 mm 0 m/S 727 mmHg 34%
    13:00 +36°C° 0 mm 0 m/S 726 mmHg 32%
    14:00 +39°C° 0 mm 1 m/S 726 mmHg 29%
    15:00 +39°C° 0 mm 1 m/S 725 mmHg 27%
    16:00 +36°C° 0 mm 1 m/S 725 mmHg 30%
    17:00 +35°C° 0 mm 1 m/S 725 mmHg 33%
    18:00 +33°C° 0 mm 1 m/S 725 mmHg 36%
    19:00 +32°C° 0 mm 2 m/S 726 mmHg 44%
    20:00 +31°C° 0 mm 2 m/S 726 mmHg 51%
    21:00 +30°C° 0 mm 2 m/S 726 mmHg 58%
    22:00 +29°C° 0 mm 2 m/S 726 mmHg 64%
    23:00 +28°C° 0 mm 2 m/S 726 mmHg 69%

    25 November, Montag

    Zeit Temperatur Niederschläge Wind Luftdruck Luftfeuchtigkeit
    00:00 +28°C° 0 mm 1 m/S 726 mmHg 75%
    01:00 +27°C° 0 mm 1 m/S 726 mmHg 77%
    02:00 +27°C° 0 mm 1 m/S 726 mmHg 79%
    03:00 +26°C° 0 mm 1 m/S 725 mmHg 82%
    04:00 +26°C° 0 mm 1 m/S 726 mmHg 84%
    05:00 +26°C° 0 mm 1 m/S 726 mmHg 87%
    06:00 +25°C° 0 mm 1 m/S 726 mmHg 90%
    07:00 +27°C° 0 mm 1 m/S 727 mmHg 81%
    08:00 +29°C° 0 mm 2 m/S 727 mmHg 72%
    09:00 +31°C° 0 mm 2 m/S 728 mmHg 64%
    10:00 +33°C° 0 mm 1 m/S 727 mmHg 52%
    11:00 +36°C° 0 mm 1 m/S 727 mmHg 41%
    12:00 +39°C° 0 mm 1 m/S 727 mmHg 29%
    13:00 +39°C° 0 mm 1 m/S 726 mmHg 26%
    14:00 +40°C° 0 mm 1 m/S 725 mmHg 24%
    15:00 +40°C° 0 mm 1 m/S 724 mmHg 21%
    16:00 +37°C° 0 mm 1 m/S 725 mmHg 24%
    17:00 +35°C° 0 mm 1 m/S 725 mmHg 27%
    18:00 +33°C° 0 mm 1 m/S 725 mmHg 31%
    19:00 +32°C° 0 mm 1 m/S 725 mmHg 33%
    20:00 +31°C° 0 mm 1 m/S 726 mmHg 35%
    21:00 +30°C° 0 mm 1 m/S 726 mmHg 36%
    22:00 +29°C° 0 mm 1 m/S 726 mmHg 44%
    23:00 +29°C° 0 mm 2 m/S 726 mmHg 52%

    26 November, Dienstag

    Zeit Temperatur Niederschläge Wind Luftdruck Luftfeuchtigkeit
    00:00 +28°C° 0 mm 2 m/S 726 mmHg 59%
    01:00 +27°C° 0 mm 2 m/S 726 mmHg 67%
    02:00 +27°C° 0 mm 2 m/S 725 mmHg 74%
    03:00 +26°C° 0 mm 1 m/S 725 mmHg 81%
    04:00 +26°C° 0 mm 1 m/S 725 mmHg 85%
    05:00 +25°C° 0 mm 1 m/S 726 mmHg 89%
    06:00 +25°C° 0 mm 1 m/S 726 mmHg 93%
    07:00 +27°C° 0 mm 1 m/S 726 mmHg 84%
    08:00 +29°C° 0 mm 2 m/S 727 mmHg 74%
    09:00 +31°C° 0 mm 2 m/S 728 mmHg 64%
    10:00 +34°C° 0 mm 1 m/S 727 mmHg 52%
    11:00 +36°C° 0 mm 1 m/S 727 mmHg 40%
    12:00 +37°C° 0 mm 0 m/S 726 mmHg 27%
    13:00 +40°C° 0 mm 1 m/S 725 mmHg 25%
    14:00 +40°C° 0 mm 1 m/S 725 mmHg 23%
    15:00 +39°C° 0 mm 1 m/S 724 mmHg 20%
    16:00 +36°C° 0 mm 1 m/S 724 mmHg 24%
    17:00 +34°C° 0 mm 1 m/S 724 mmHg 27%
    18:00 +33°C° 0 mm 1 m/S 725 mmHg 30%
    19:00 +32°C° 0 mm 1 m/S 725 mmHg 32%
    20:00 +31°C° 0 mm 1 m/S 726 mmHg 34%
    21:00 +30°C° 0 mm 1 m/S 726 mmHg 37%
    22:00 +29°C° 0 mm 1 m/S 726 mmHg 44%
    23:00 +28°C° 0 mm 1 m/S 726 mmHg 51%

    27 November, Mittwoch

    Zeit Temperatur Niederschläge Wind Luftdruck Luftfeuchtigkeit
    00:00 +28°C° 0 mm 1 m/S 726 mmHg 58%
    01:00 +27°C° 0 mm 1 m/S 726 mmHg 66%
    02:00 +26°C° 0 mm 1 m/S 725 mmHg 73%
    03:00 +26°C° 0 mm 1 m/S 725 mmHg 80%
    04:00 +26°C° 0 mm 1 m/S 725 mmHg 84%
    05:00 +25°C° 0 mm 1 m/S 726 mmHg 88%
    06:00 +25°C° 0 mm 1 m/S 726 mmHg 92%
    07:00 +27°C° 0 mm 1 m/S 726 mmHg 82%
    08:00 +29°C° 0 mm 2 m/S 727 mmHg 72%
    09:00 +31°C° 0 mm 2 m/S 727 mmHg 62%
    10:00 +34°C° 0 mm 1 m/S 727 mmHg 50%
    11:00 +36°C° 0 mm 1 m/S 726 mmHg 38%
    12:00 +40°C° 0 mm 1 m/S 726 mmHg 27%
    13:00 +40°C° 0 mm 1 m/S 725 mmHg 25%
    14:00 +39°C° 0 mm 1 m/S 725 mmHg 22%
    15:00 +39°C° 0 mm 2 m/S 724 mmHg 20%
    16:00 +37°C° 0 mm 2 m/S 724 mmHg 23%
    17:00 +34°C° 0 mm 1 m/S 724 mmHg 26%
    18:00 +32°C° 0 mm 1 m/S 724 mmHg 29%
    19:00 +32°C° 0 mm 1 m/S 725 mmHg 30%
    20:00 +31°C° 0 mm 1 m/S 725 mmHg 31%
    21:00 +30°C° 0 mm 2 m/S 726 mmHg 32%
    22:00 +29°C° 0 mm 1 m/S 726 mmHg 33%
    23:00 +29°C° 0 mm 1 m/S 726 mmHg 34%
    Mehr zeigen